Current weather by "City, St" or "zip code"  
 

Current Conditions: Southern Illinois Airport, IL

Fog/Mist


34.0 F

Last Updated on Oct 31 2020, 2:52 am CDT
Humidity: 97%
Wind Speed: N 0.0 mph
Barometer 30.32 in
Dewpoint: 33.1 F
Visibility: 4.00 mi
Precip: --
Heat Index: NA
Wind Chill: NA
Current conditions at:

Southern Illinois Airport, IL (KMDH)

Lat: 37.78328 Lon: 89.24532

Local Radar Image active severe weather and emergency alerts image image weather storm and storm spotter reports image weather observation monitoring service image
Local
Radar
Active
Alerts
Storm Reports Obs
Monitoring

Sign-up For Email & Text Message Weather Alert Notification Services



Advertise Here

Observation History for Southern Illinois Airport, IL


Time Wind
(mph)
Vis
(mi)
Weather Precip (in) Temperature (F) Relative
Humidity
Wind
Chill
(F)
Heat
Index
(F)
Pressure
Air Dwpt altimeter
(in)
sea level
(mb)
Rmks
2:52 am CDT N 0.0 4.00 Fog/Mist -- 34.0 33.1 97% NA NA 30.32 1026.8
1:52 am CDT N 0.0 7.00 Fair -- 36.0 34.0 93% NA NA 30.32 1026.9
12:52 am CDT N 0.0 8.00 Fair -- 37.0 35.1 93% NA NA 30.31 1026.6
11:52 pm CDT N 0.0 9.00 Fair -- 38.0 36.0 93% NA NA 30.32 1026.7
10:52 pm CDT N 0.0 6.00 Fog/Mist -- 38.0 36.0 93% NA NA 30.32 1027.0
9:52 pm CDT N 0.0 8.00 Fair -- 38.0 36.0 93% NA NA 30.31 1026.6
8:52 pm CDT N 0.0 10.00 Fair -- 41.0 37.9 89% NA NA 30.30 1026.4
7:52 pm CDT N 0.0 10.00 Fair -- 42.0 39.0 89% NA NA 30.30 1026.1
6:52 pm CDT N 0.0 10.00 Fair -- 45.0 37.9 77% NA NA 30.28 1025.6
5:52 pm CDT E 4.6 10.00 Fair -- 51.0 37.0 59% 50 NA 30.27 1025.3
4:52 pm CDT N 0.0 10.00 Fair -- 54.0 35.1 49% NA NA 30.28 1025.6
3:52 pm CDT N 0.0 10.00 Fair -- 55.0 36.0 49% NA NA 30.29 1025.7
2:52 pm CDT NE 4.6 10.00 Fair -- 54.0 36.0 51% 53 NA 30.29 1025.7
1:52 pm CDT N 0.0 10.00 Fair -- 53.0 35.1 51% NA NA 30.30 1026.3
12:52 pm CDT N 0.0 10.00 Mostly Cloudy -- 51.0 36.0 56% NA NA 30.33 1027.3
11:52 am CDT N 0.0 10.00 A Few Clouds -- 49.0 36.0 61% NA NA 30.35 1027.7
10:52 am CDT N 0.0 10.00 Fair -- 47.0 36.0 66% NA NA 30.34 1027.6
9:52 am CDT NW 3.5 10.00 Fair -- 44.0 36.0 73% NA NA 30.34 1027.4
8:52 am CDT N 3.5 10.00 Fair -- 41.0 35.1 79% NA NA 30.32 1026.7
7:52 am CDT N 0.0 10.00 Fair -- 35.0 33.1 93% NA NA 30.29 1025.8
6:52 am CDT NW 6.9 10.00 Fair -- 36.0 33.1 89% 30 NA 30.26 1025.0
5:52 am CDT NW 5.8 10.00 Fair -- 36.0 33.1 89% 31 NA 30.23 1023.7
4:52 am CDT NW 5.8 10.00 Fair -- 37.0 34.0 89% 32 NA 30.20 1022.8

Regional Weather Observation


Sparta Community-Hunter Field Airport, IL (KSAR)

Fair
39.0 F

Marion - Williamson County Regional Airport, IL (KMWA)

Fair
36.0 F

Centralia Municipal Airport, IL (KENL)

Fair
38.0 F

Belleville, Scott AFB/MidAmerica Airport, IL (KBLV)

Fog/Mist
36.0 F

Cape Girardeau, Cape Girardeau Regional Airport, MO (KCGI)

Fair
39.0 F

Mount Vernon Airport, IL (KMVN)

Fair
33.0 F